This is the latest recevied weather packets stored in our database for station/object KD9ZDW. If no packets are shown the sender has not sent any weather packets the latest 10 day(s).
| Time | Temp. | Humidity | Pressure | Rain* | Wind** | Luminosity | Snow |
|---|---|---|---|---|---|---|---|
| 1777524142 | 7.22° C | 78% | 1016.3 hPa | 0 mm | - | 0 W/m² | - |
| 1777523838 | 7.22° C | 78% | 1016.3 hPa | 0 mm | - | 0 W/m² | - |
| 1777523535 | 7.22° C | 78% | 1016.4 hPa | 0 mm | - | 0 W/m² | - |
| 1777523231 | 7.22° C | 78% | 1016.3 hPa | 0 mm | - | 0 W/m² | - |
| 1777522926 | 7.22° C | 79% | 1016.3 hPa | 0 mm | - | 0 W/m² | - |
| 1777522625 | 7.22° C | 78% | 1016.4 hPa | 0 mm | - | 0 W/m² | - |
| 1777522321 | 7.22° C | 80% | 1016.4 hPa | 0 mm | - | 0 W/m² | - |
| 1777522018 | 7.22° C | 81% | 1016.2 hPa | 0 mm | - | 0 W/m² | - |
| 1777521714 | 7.78° C | 81% | 1016.3 hPa | 0 mm | - | 0 W/m² | - |
| 1777521411 | 7.22° C | 80% | 1016.1 hPa | 0 mm | - | 0 W/m² | - |
| 1777521108 | 7.22° C | 82% | 1016.3 hPa | 0 mm | - | 0 W/m² | - |
| 1777520806 | 7.78° C | 80% | 1016.3 hPa | 0 mm | - | 0 W/m² | - |
| 1777520502 | 7.78° C | 80% | 1016.1 hPa | 0 mm | - | 0 W/m² | - |
| 1777520199 | 7.78° C | 80% | 1016.3 hPa | 0 mm | - | 0 W/m² | - |
| 1777519897 | 7.78° C | 80% | 1016.3 hPa | 0 mm | - | 0 W/m² | - |
| 1777519594 | 7.78° C | 80% | 1016.2 hPa | 0 mm | - | 0 W/m² | - |
| 1777519290 | 7.78° C | 80% | 1016.3 hPa | 0 mm | - | 0 W/m² | - |
| 1777518986 | 7.78° C | 80% | 1016.2 hPa | 0 mm | - | 0 W/m² | - |
| 1777518682 | 7.78° C | 83% | 1016.3 hPa | 0 mm | - | 0 W/m² | - |
| 1777518380 | 7.78° C | 84% | 1016.2 hPa | 0 mm | - | 0 W/m² | - |
| 1777518075 | 7.78° C | 84% | 1016.1 hPa | 0 mm | - | 0 W/m² | - |
| 1777517771 | 7.78° C | 84% | 1016.2 hPa | 0 mm | - | 0 W/m² | - |
| 1777517467 | 7.78° C | 84% | 1016.1 hPa | 0 mm | - | 0 W/m² | - |
| 1777517166 | 7.78° C | 84% | 1016.1 hPa | 0 mm | - | 0 W/m² | - |
| 1777516864 | 7.78° C | 84% | 1015.9 hPa | 0 mm | - | 0 W/m² | - |
* Rain latest hour (hover to see other rain measurements)
** Current wind speed in m/s (hover to see current wind gust speed)